﻿測定場所 (Monitoring sites),日付 (Measurement date),時間 (Measurement time),線量率 最大値 (max) μGy/h,線量率 最小値 (min) μGy/h,線量率 平均値 (average) μGy/h,
新宿 (Shinjuku),2017-11-26,23:01～24:00,0.0400,0.0348,0.0368,
新宿 (Shinjuku),2017-11-26,22:01～23:00,0.0392,0.0346,0.0366,
新宿 (Shinjuku),2017-11-26,21:01～22:00,0.0404,0.0336,0.0364,
新宿 (Shinjuku),2017-11-26,20:01～21:00,0.0395,0.0336,0.0363,
新宿 (Shinjuku),2017-11-26,19:01～20:00,0.0375,0.0346,0.0361,
新宿 (Shinjuku),2017-11-26,18:01～19:00,0.0384,0.0331,0.0361,
新宿 (Shinjuku),2017-11-26,17:01～18:00,0.0391,0.0341,0.0362,
新宿 (Shinjuku),2017-11-26,16:01～17:00,0.0391,0.0343,0.0362,
新宿 (Shinjuku),2017-11-26,15:01～16:00,0.0391,0.0342,0.0362,
新宿 (Shinjuku),2017-11-26,14:01～15:00,0.0387,0.0338,0.0361,
新宿 (Shinjuku),2017-11-26,13:01～14:00,0.0381,0.0343,0.0362,
新宿 (Shinjuku),2017-11-26,12:01～13:00,0.0397,0.0341,0.0364,
新宿 (Shinjuku),2017-11-26,11:01～12:00,0.0391,0.0351,0.0366,
新宿 (Shinjuku),2017-11-26,10:01～11:00,0.0402,0.0333,0.0369,
新宿 (Shinjuku),2017-11-26,09:01～10:00,0.0388,0.0346,0.0366,
新宿 (Shinjuku),2017-11-26,08:01～09:00,0.0406,0.0350,0.0367,
新宿 (Shinjuku),2017-11-26,07:01～08:00,0.0404,0.0348,0.0369,
新宿 (Shinjuku),2017-11-26,06:01～07:00,0.0400,0.0348,0.0369,
新宿 (Shinjuku),2017-11-26,05:01～06:00,0.0401,0.0349,0.0366,
新宿 (Shinjuku),2017-11-26,04:01～05:00,0.0401,0.0343,0.0370,
新宿 (Shinjuku),2017-11-26,03:01～04:00,0.0403,0.0351,0.0369,
新宿 (Shinjuku),2017-11-26,02:01～03:00,0.0401,0.0349,0.0366,
新宿 (Shinjuku),2017-11-26,01:01～02:00,0.0404,0.0354,0.0372,
新宿 (Shinjuku),2017-11-26,00:01～01:00,0.0401,0.0354,0.0373,
新宿 (Shinjuku),2017-11-25,23:01～24:00,0.0396,0.0353,0.0370,
新宿 (Shinjuku),2017-11-25,22:01～23:00,0.0401,0.0346,0.0368,
新宿 (Shinjuku),2017-11-25,21:01～22:00,0.0394,0.0346,0.0363,
新宿 (Shinjuku),2017-11-25,20:01～21:00,0.0392,0.0341,0.0360,
新宿 (Shinjuku),2017-11-25,19:01～20:00,0.0387,0.0342,0.0363,
新宿 (Shinjuku),2017-11-25,18:01～19:00,0.0400,0.0344,0.0364,
新宿 (Shinjuku),2017-11-25,17:01～18:00,0.0396,0.0348,0.0363,
新宿 (Shinjuku),2017-11-25,16:01～17:00,0.0393,0.0343,0.0365,
新宿 (Shinjuku),2017-11-25,15:01～16:00,0.0399,0.0337,0.0363,
新宿 (Shinjuku),2017-11-25,14:01～15:00,0.0384,0.0341,0.0362,
新宿 (Shinjuku),2017-11-25,13:01～14:00,0.0385,0.0344,0.0363,
新宿 (Shinjuku),2017-11-25,12:01～13:00,0.0398,0.0344,0.0363,
新宿 (Shinjuku),2017-11-25,11:01～12:00,0.0388,0.0343,0.0362,
新宿 (Shinjuku),2017-11-25,10:01～11:00,0.0385,0.0338,0.0365,
新宿 (Shinjuku),2017-11-25,09:01～10:00,0.0388,0.0346,0.0366,
新宿 (Shinjuku),2017-11-25,08:01～09:00,0.0414,0.0352,0.0373,
新宿 (Shinjuku),2017-11-25,07:01～08:00,0.0414,0.0351,0.0371,
新宿 (Shinjuku),2017-11-25,06:01～07:00,0.0398,0.0341,0.0368,
新宿 (Shinjuku),2017-11-25,05:01～06:00,0.0392,0.0342,0.0364,
新宿 (Shinjuku),2017-11-25,04:01～05:00,0.0400,0.0351,0.0367,
新宿 (Shinjuku),2017-11-25,03:01～04:00,0.0399,0.0338,0.0365,
新宿 (Shinjuku),2017-11-25,02:01～03:00,0.0402,0.0344,0.0364,
新宿 (Shinjuku),2017-11-25,01:01～02:00,0.0390,0.0344,0.0361,
新宿 (Shinjuku),2017-11-25,00:01～01:00,0.0401,0.0340,0.0364,
新宿 (Shinjuku),2017-11-24,23:01～24:00,0.0407,0.0339,0.0363,
新宿 (Shinjuku),2017-11-24,22:01～23:00,0.0399,0.0345,0.0365,
新宿 (Shinjuku),2017-11-24,21:01～22:00,0.0393,0.0335,0.0362,
新宿 (Shinjuku),2017-11-24,20:01～21:00,0.0384,0.0338,0.0360,
新宿 (Shinjuku),2017-11-24,19:01～20:00,0.0396,0.0340,0.0363,
新宿 (Shinjuku),2017-11-24,18:01～19:00,0.0402,0.0342,0.0362,
新宿 (Shinjuku),2017-11-24,17:01～18:00,0.0385,0.0338,0.0361,
新宿 (Shinjuku),2017-11-24,16:01～17:00,0.0388,0.0347,0.0362,
新宿 (Shinjuku),2017-11-24,15:01～16:00,0.0396,0.0340,0.0362,
新宿 (Shinjuku),2017-11-24,14:01～15:00,0.0392,0.0342,0.0364,
新宿 (Shinjuku),2017-11-24,13:01～14:00,0.0396,0.0340,0.0365,
新宿 (Shinjuku),2017-11-24,12:01～13:00,0.0392,0.0345,0.0366,
新宿 (Shinjuku),2017-11-24,11:01～12:00,0.0415,0.0351,0.0368,
新宿 (Shinjuku),2017-11-24,10:01～11:00,0.0382,0.0340,0.0363,
新宿 (Shinjuku),2017-11-24,09:01～10:00,0.0389,0.0349,0.0367,
新宿 (Shinjuku),2017-11-24,08:01～09:00,0.0379,0.0337,0.0361,
新宿 (Shinjuku),2017-11-24,07:01～08:00,0.0386,0.0343,0.0363,
新宿 (Shinjuku),2017-11-24,06:01～07:00,0.0390,0.0347,0.0363,
新宿 (Shinjuku),2017-11-24,05:01～06:00,0.0391,0.0340,0.0361,
新宿 (Shinjuku),2017-11-24,04:01～05:00,0.0389,0.0342,0.0364,
新宿 (Shinjuku),2017-11-24,03:01～04:00,0.0394,0.0340,0.0363,
新宿 (Shinjuku),2017-11-24,02:01～03:00,0.0408,0.0341,0.0362,
新宿 (Shinjuku),2017-11-24,01:01～02:00,0.0389,0.0339,0.0362,
新宿 (Shinjuku),2017-11-24,00:01～01:00,0.0388,0.0344,0.0360,
新宿 (Shinjuku),2017-11-23,23:01～24:00,0.0389,0.0341,0.0365,
新宿 (Shinjuku),2017-11-23,22:01～23:00,0.0393,0.0336,0.0361,
新宿 (Shinjuku),2017-11-23,21:01～22:00,0.0383,0.0343,0.0361,
新宿 (Shinjuku),2017-11-23,20:01～21:00,0.0401,0.0347,0.0364,
新宿 (Shinjuku),2017-11-23,19:01～20:00,0.0393,0.0349,0.0366,
新宿 (Shinjuku),2017-11-23,18:01～19:00,0.0380,0.0333,0.0360,
新宿 (Shinjuku),2017-11-23,17:01～18:00,0.0401,0.0343,0.0365,
新宿 (Shinjuku),2017-11-23,16:01～17:00,0.0385,0.0338,0.0363,
新宿 (Shinjuku),2017-11-23,15:01～16:00,0.0407,0.0343,0.0366,
新宿 (Shinjuku),2017-11-23,14:01～15:00,0.0394,0.0337,0.0367,
新宿 (Shinjuku),2017-11-23,13:01～14:00,0.0417,0.0352,0.0377,
新宿 (Shinjuku),2017-11-23,12:01～13:00,0.0463,0.0374,0.0414,
新宿 (Shinjuku),2017-11-23,11:01～12:00,0.0538,0.0427,0.0474,
新宿 (Shinjuku),2017-11-23,10:01～11:00,0.0569,0.0481,0.0530,
新宿 (Shinjuku),2017-11-23,09:01～10:00,0.0560,0.0436,0.0493,
新宿 (Shinjuku),2017-11-23,08:01～09:00,0.0490,0.0418,0.0459,
新宿 (Shinjuku),2017-11-23,07:01～08:00,0.0487,0.0425,0.0454,
新宿 (Shinjuku),2017-11-23,06:01～07:00,0.0491,0.0418,0.0446,
新宿 (Shinjuku),2017-11-23,05:01～06:00,0.0475,0.0399,0.0437,
新宿 (Shinjuku),2017-11-23,04:01～05:00,0.0464,0.0400,0.0426,
新宿 (Shinjuku),2017-11-23,03:01～04:00,0.0466,0.0381,0.0426,
新宿 (Shinjuku),2017-11-23,02:01～03:00,0.0475,0.0391,0.0431,
新宿 (Shinjuku),2017-11-23,01:01～02:00,0.0460,0.0368,0.0409,
新宿 (Shinjuku),2017-11-23,00:01～01:00,0.0415,0.0363,0.0386,
新宿 (Shinjuku),2017-11-22,23:01～24:00,0.0433,0.0365,0.0394,
新宿 (Shinjuku),2017-11-22,22:01～23:00,0.0438,0.0356,0.0395,
新宿 (Shinjuku),2017-11-22,21:01～22:00,0.0417,0.0358,0.0384,
新宿 (Shinjuku),2017-11-22,20:01～21:00,0.0435,0.0369,0.0401,
新宿 (Shinjuku),2017-11-22,19:01～20:00,0.0416,0.0356,0.0377,
新宿 (Shinjuku),2017-11-22,18:01～19:00,0.0411,0.0354,0.0381,
新宿 (Shinjuku),2017-11-22,17:01～18:00,0.0411,0.0351,0.0373,
新宿 (Shinjuku),2017-11-22,16:01～17:00,0.0398,0.0341,0.0369,
新宿 (Shinjuku),2017-11-22,15:01～16:00,0.0401,0.0347,0.0370,
新宿 (Shinjuku),2017-11-22,14:01～15:00,0.0405,0.0353,0.0370,
新宿 (Shinjuku),2017-11-22,13:01～14:00,0.0403,0.0349,0.0366,
新宿 (Shinjuku),2017-11-22,12:01～13:00,0.0397,0.0347,0.0370,
新宿 (Shinjuku),2017-11-22,11:01～12:00,0.0420,0.0352,0.0373,
新宿 (Shinjuku),2017-11-22,10:01～11:00,0.0430,0.0353,0.0374,
新宿 (Shinjuku),2017-11-22,09:01～10:00,0.0415,0.0332,0.0371,
新宿 (Shinjuku),2017-11-22,08:01～09:00,0.0412,0.0347,0.0371,
新宿 (Shinjuku),2017-11-22,07:01～08:00,0.0401,0.0347,0.0371,
新宿 (Shinjuku),2017-11-22,06:01～07:00,0.0400,0.0346,0.0369,
新宿 (Shinjuku),2017-11-22,05:01～06:00,0.0401,0.0352,0.0371,
新宿 (Shinjuku),2017-11-22,04:01～05:00,0.0396,0.0348,0.0369,
新宿 (Shinjuku),2017-11-22,03:01～04:00,0.0402,0.0345,0.0369,
新宿 (Shinjuku),2017-11-22,02:01～03:00,0.0401,0.0348,0.0369,
新宿 (Shinjuku),2017-11-22,01:01～02:00,0.0399,0.0348,0.0370,
新宿 (Shinjuku),2017-11-22,00:01～01:00,0.0403,0.0350,0.0371,
新宿 (Shinjuku),2017-11-21,23:01～24:00,0.0391,0.0339,0.0364,
新宿 (Shinjuku),2017-11-21,22:01～23:00,0.0397,0.0339,0.0363,
新宿 (Shinjuku),2017-11-21,21:01～22:00,0.0413,0.0331,0.0363,
新宿 (Shinjuku),2017-11-21,20:01～21:00,0.0394,0.0343,0.0365,
新宿 (Shinjuku),2017-11-21,19:01～20:00,0.0393,0.0340,0.0364,
新宿 (Shinjuku),2017-11-21,18:01～19:00,0.0376,0.0341,0.0361,
新宿 (Shinjuku),2017-11-21,17:01～18:00,0.0402,0.0345,0.0366,
新宿 (Shinjuku),2017-11-21,16:01～17:00,0.0394,0.0343,0.0364,
新宿 (Shinjuku),2017-11-21,15:01～16:00,0.0383,0.0340,0.0361,
新宿 (Shinjuku),2017-11-21,14:01～15:00,0.0385,0.0343,0.0364,
新宿 (Shinjuku),2017-11-21,13:01～14:00,0.0386,0.0336,0.0364,
新宿 (Shinjuku),2017-11-21,12:01～13:00,0.0391,0.0344,0.0364,
新宿 (Shinjuku),2017-11-21,11:01～12:00,0.0399,0.0350,0.0367,
新宿 (Shinjuku),2017-11-21,10:01～11:00,0.0385,0.0343,0.0364,
新宿 (Shinjuku),2017-11-21,09:01～10:00,0.0392,0.0334,0.0364,
新宿 (Shinjuku),2017-11-21,08:01～09:00,0.0395,0.0343,0.0364,
新宿 (Shinjuku),2017-11-21,07:01～08:00,0.0406,0.0344,0.0367,
新宿 (Shinjuku),2017-11-21,06:01～07:00,0.0395,0.0345,0.0366,
新宿 (Shinjuku),2017-11-21,05:01～06:00,0.0394,0.0350,0.0368,
新宿 (Shinjuku),2017-11-21,04:01～05:00,0.0390,0.0341,0.0365,
新宿 (Shinjuku),2017-11-21,03:01～04:00,0.0410,0.0342,0.0367,
新宿 (Shinjuku),2017-11-21,02:01～03:00,0.0395,0.0356,0.0369,
新宿 (Shinjuku),2017-11-21,01:01～02:00,0.0403,0.0352,0.0368,
新宿 (Shinjuku),2017-11-21,00:01～01:00,0.0404,0.0351,0.0371,
新宿 (Shinjuku),2017-11-20,23:01～24:00,0.0392,0.0338,0.0371,
新宿 (Shinjuku),2017-11-20,22:01～23:00,0.0410,0.0356,0.0374,
新宿 (Shinjuku),2017-11-20,21:01～22:00,0.0410,0.0353,0.0376,
新宿 (Shinjuku),2017-11-20,20:01～21:00,0.0403,0.0351,0.0372,
新宿 (Shinjuku),2017-11-20,19:01～20:00,0.0411,0.0350,0.0371,
新宿 (Shinjuku),2017-11-20,18:01～19:00,0.0386,0.0346,0.0366,
新宿 (Shinjuku),2017-11-20,17:01～18:00,0.0394,0.0344,0.0368,
新宿 (Shinjuku),2017-11-20,16:01～17:00,0.0405,0.0343,0.0369,
新宿 (Shinjuku),2017-11-20,15:01～16:00,0.0413,0.0349,0.0370,
新宿 (Shinjuku),2017-11-20,14:01～15:00,0.0403,0.0349,0.0371,
新宿 (Shinjuku),2017-11-20,13:01～14:00,0.0395,0.0351,0.0370,
新宿 (Shinjuku),2017-11-20,12:01～13:00,0.0398,0.0345,0.0370,
新宿 (Shinjuku),2017-11-20,11:01～12:00,0.0403,0.0347,0.0370,
新宿 (Shinjuku),2017-11-20,10:01～11:00,0.0405,0.0343,0.0371,
新宿 (Shinjuku),2017-11-20,09:01～10:00,0.0409,0.0348,0.0369,
新宿 (Shinjuku),2017-11-20,08:01～09:00,0.0415,0.0344,0.0370,
新宿 (Shinjuku),2017-11-20,07:01～08:00,0.0402,0.0348,0.0369,
新宿 (Shinjuku),2017-11-20,06:01～07:00,0.0392,0.0349,0.0368,
新宿 (Shinjuku),2017-11-20,05:01～06:00,0.0403,0.0345,0.0370,
新宿 (Shinjuku),2017-11-20,04:01～05:00,0.0416,0.0353,0.0372,
新宿 (Shinjuku),2017-11-20,03:01～04:00,0.0408,0.0345,0.0370,
新宿 (Shinjuku),2017-11-20,02:01～03:00,0.0397,0.0347,0.0368,
新宿 (Shinjuku),2017-11-20,01:01～02:00,0.0421,0.0348,0.0368,
新宿 (Shinjuku),2017-11-20,00:01～01:00,0.0391,0.0339,0.0366,
